Regional Weather Roundup
Issued by NWS New Orleans/Baton Rouge, LA

Home | Current Version | Previous Version | Text Only | Print | Product List | Glossary On
Versions: 1 2 3 4 5 6 7 8 9 10 11 12 13 14 15 16 17 18 19 20 21 22 23 24 25 26 27 28 29 30 31 32 33 34 35 36 37 38 39 40 41 42 43 44 45 46 47 48 49 50
000
ASUS44 KLIX 270110
RWRLIX
NEW ORLEANS REGIONAL WEATHER ROUNDUP
NATIONAL WEATHER SERVICE NEW ORLEANS LA
700 PM CST FRI DEC 26 2014

NOTE: "FAIR" INDICATES FEW OR NO CLOUDS BELOW 12,000 FEET WITH NO
      SIGNIFICANT WEATHER AND/OR OBSTRUCTIONS TO VISIBILITY.
      SKY/WX - SKY CONDITION AND SIGNIFICANT WEATHER.
      TMP - AIR TEMPERATURE.     DP    - DEWPOINT TEMPERATURE.
      RH  - RELATIVE HUMIDITY.   PRES  - PRESSURE.
      HI  - HEAT INDEX.          WCI   - WIND CHILL INDEX.

*  THESE STATIONS ARE NOT NWS OR FAA STATIONS AND ARE NOT UNDER
   NWS QUALITY CONTROL.

LAZ038-040-048-061>063-065>067-069-270200-
SOUTHEAST LOUISIANA

CITY           SKY/WX    TMP DP  RH WIND       PRES   REMARKS
N.O. AUDUBON     N/A     62  58  88 MISG        N/A
N.O. INTL ARPT CLOUDY    62  54  74 E9        30.15R
N.O. LAKEFRONT CLOUDY    63  56  78 E16       30.16R
N.O. DOWNTOWN* CLOUDY    63  54  72 E10G16    30.16S
SLIDELL        CLOUDY    62  53  72 E12       30.17R
BATON ROUGE    CLOUDY    61  53  75 E14       30.13R
BOOTHVILLE     CLOUDY    63  58  83 E9        30.17R
BELLE CHASSE   CLOUDY    62  57  83 E14       30.15R
BOGALUSA*        N/A     65  52  63 E7        30.19R
GALLIANO*      CLOUDY    65  58  77 MISG      30.14R
NEW ROADS*     CLOUDY    60  55  84 E8        30.12S
GONZALES*      CLOUDY    61  57  89 E6        30.13S
HAMMOND*       NOT AVBL
HOUMA*         CLOUDY    63  57  82 E12G18    30.12F
PORT FOURCHON* CLOUDY    66  63  88 E13G21    30.15S

$$

MSZ070-080>082-270200-
SOUTHERN MISSISSIPPI

CITY           SKY/WX    TMP DP  RH WIND       PRES   REMARKS
MCCOMB         CLOUDY    60  53  77 E6        30.15S
GULFPORT       CLOUDY    61  54  77 E14       30.19S
BILOXI         CLOUDY    62  55  77 E12       30.19S
PASCAGOULA     CLOUDY    60  53  77 E7        30.23R

$$

COASTAL OBSERVATIONS
LAKE AND NEARSHORE STATIONS

STATION/POSITION TIME  TEMP    WIND        PRES    WAVE
                       AIR SEA DIR/SP/G            HT/PER
                 (UTC) (F)     (DEG/KT/KT) (MB)    (FT/S)
PASCAGOULA       0100   62     100/ 12/ 18 1022.8
WAVELAND YACHT   0100   60     110/ 17/ 21 1021.4
GRAND ISLE       0100   64 62  110/ 11/ 17 1020.8
SOUTHWEST PASS   0100   66                 1021.2
NEW CANAL        0100   61 57  150/  2/  7 1021.4
SHELL BEACH      0100   62 59   90/ 17/ 21 1020.6

OFFSHORE STATIONS

STATION/POSITION TIME  TEMP    WIND        PRES    WAVE
                       AIR SEA DIR/SP/G            HT/PER
                 (UTC) (F)     (DEG/KT/KT) (MB)    (FT/S)
64 S DAUPHIN ISL 0100   69 74   90/ 17/ 19 1021.6    2/ 4

$$



USA.gov is the U.S. government's official web portal to all federal, state and local government web resources and services.